CUSAT 1

Last updated on Thu Dec 13 2018 00:09:21 GMT+0000 (Coordinated Universal Time)

1 39266U 13055B 18346.52449043 .00002617 00000-0 69811-4 0 9998 2 39266 80.9831 160.0972 0644253 75.4281 291.7421 14.33724201269733
UTC large
Height (km)
Speed (km/s)
/
Latitude / Longitude
Inclination (degrees)
Orbital Period (minutes)
Azimuth
Elevation
Range (km)
Doppler Factor

Next 0 passes for location: London (51.5072 / 0.1276)

Sorry there are no passes over London.